Location: Stickney
(38.6381°N, 98.8295°W)
Time: 09:03:46
(UTC+00:00)

Daily predictions for brighter satellites

Satellite Brightness Start Highest point End
(mag) Time Altitude Azimuth Time Altitude Azimuth Time Altitude Azimuth
STARLINK-54 3.5 12:04:12 61° NW 12:04:21 61° NW 12:08:22 10° NE
STARLINK-28 4.0 12:05:19 39° N 12:05:19 39° N 12:08:00 10° NE
STARLINK-77 3.4 12:05:26 61° WNW 12:05:47 65° NW 12:09:48 10° NE
Cosmos 1726 Rocket 4.1 12:01:47 10° S 12:06:10 61° E 12:10:32 10° NNE
CZ-4B DEB 4.2 12:00:51 10° NNE 12:06:26 89° WNW 12:11:57 10° SSW
STARLINK-25 3.5 12:07:02 58° WNW 12:07:27 63° NW 12:11:28 10° NE
STARLINK-71 3.6 12:09:00 53° WNW 12:09:20 55° NW 12:13:18 10° NE
Cosmos 1680 Rocket 4.1 12:04:17 10° S 12:09:29 59° ESE 12:14:44 10° NNE
Cosmos 2297 Rocket 3.8 12:11:52 17° SW 12:11:52 17° SW 12:13:43 10° SSW
STARLINK-79 3.5 12:10:12 53° WNW 12:10:45 59° NW 12:14:44 10° NE
NOAA 6 4.3 12:05:52 10° NNE 12:11:03 70° ESE 12:16:13 10° S
SJ-12 3.9 12:07:41 10° N 12:11:40 53° WNW 12:15:37 10° SSW
Cosmos 2322 Rocket 3.7 12:06:45 10° S 12:11:56 38° ESE 12:17:09 10° NE
STARLINK-42 3.6 12:12:07 48° NW 12:12:12 48° NW 12:15:54 10° NE
STARLINK-78 3.6 12:11:52 50° WNW 12:12:28 56° NW 12:16:27 10° NE
Cosmos 972 Rocket 4.4 12:06:48 10° NNW 12:13:02 80° ENE 12:18:32 10° SSE
STARLINK-57 3.7 12:13:37 47° WNW 12:14:13 52° NW 12:18:10 10° NE
NOSS 3-2 (C) 4.5 12:07:18 11° NNW 12:14:43 64° NE 12:23:07 10° SE
STARLINK-64 3.6 12:14:51 46° NW 12:15:07 47° NW 12:18:50 10° NE
STARLINK-46 4.2 12:16:20 21° SSE 12:16:20 21° SSE 12:17:11 10° SE
STARLINK-49 3.7 12:15:00 45° WNW 12:15:45 53° NW 12:19:41 10° NE
STARLINK-27 3.7 12:16:37 43° WNW 12:17:27 51° NW 12:21:23 10° NE
STARLINK-74 3.7 12:18:10 41° WNW 12:19:03 50° NW 12:22:59 10° NE
MOS 1-B 4.3 12:14:46 10° N 12:20:29 63° WNW 12:26:11 10° SSW
STARLINK-39 3.8 12:19:48 39° WNW 12:20:44 48° NW 12:24:40 10° NE
Cosmos 2227 Rocket 3.8 12:23:21 16° WSW 12:23:21 16° WSW 12:25:28 10° SW
STARLINK 3.8 12:21:26 37° WNW 12:22:27 46° NW 12:26:21 10° NE
PSLV R/B 3.9 12:23:55 27° ESE 12:23:55 27° ESE 12:25:09 10° E
STARLINK-69 4.0 12:23:19 35° WNW 12:24:16 42° NW 12:28:07 10° NE
ATLAS 3B R/B 3.9 12:18:18 10° NNW 12:24:33 38° NE 12:30:56 10° ESE
NOSS 3-4 (A) 3.4 12:19:11 10° SSW 12:25:08 88° ESE 12:31:24 10° NNE
NOSS 3-4 (C) 3.4 12:19:17 10° SSW 12:25:14 88° ESE 12:31:30 10° NE
STARLINK-21 3.9 12:24:38 34° WNW 12:25:46 43° NW 12:29:38 10° NE
Cosmos 2112 Rocket 4.3 12:20:52 10° S 12:26:10 73° ESE 12:31:31 10° NNE
Cosmos 44 Rocket 3.6 12:24:27 29° WNW 12:26:17 42° WSW 12:30:47 10° S
Cosmos 2263 Rocket 2.9 12:20:54 10° NNW 12:26:26 53° ENE 12:31:58 10° SE
NOSS 2 (A) 3.9 12:27:02 66° SW 12:27:02 66° SW 12:29:18 10° SSE
STARLINK-45 4.1 12:26:37 32° WNW 12:27:41 39° NW 12:31:28 10° NE
STARLINK-70 4.1 12:28:01 31° WNW 12:29:12 39° NW 12:33:00 10° NE
STARLINK 1035 4.4 12:26:20 10° SSW 12:29:30 40° SE 12:32:40 10° ENE
USA 215 3.2 12:23:04 10° SE 12:29:36 84° SW 12:35:14 15° NW
STARLINK-76 4.0 12:29:25 30° WNW 12:30:45 40° NW 12:34:34 10° NE
Cosmos 1726 2.2 12:27:54 10° SSW 12:31:28 50° W 12:35:04 10° N
STARLINK 1060 4.4 12:28:24 10° SSW 12:31:48 43° SE 12:35:14 10° ENE
STARLINK 1027 4.1 12:28:42 10° SSW 12:31:56 47° SE 12:35:10 10° ENE
Cosmos 2228 3.0 12:27:40 10° SSW 12:32:00 58° W 12:36:21 10° N
STARLINK 4.1 12:31:01 29° WNW 12:32:24 39° NW 12:36:12 10° NE
Cosmos 2366 rocket 4.3 12:26:14 10° N 12:32:35 72° E 12:38:55 10° SSE
SJ-7 4.4 12:28:45 10° N 12:32:55 86° WNW 12:37:07 10° SSW
SL-4 R/B 1.9 12:31:42 24° NW 12:33:37 59° NE 12:37:00 10° ESE
H-2A R/B 3.7 12:30:15 10° NNE 12:34:04 51° E 12:37:50 10° S
STARLINK-32 4.1 12:32:36 27° WNW 12:34:04 38° NNW 12:37:51 10° NE
STARLINK 1030 4.3 12:31:09 10° SSW 12:34:35 46° SE 12:38:02 10° ENE
STARLINK 1040 3.1 12:32:31 13° SW 12:34:57 60° SE 12:37:46 10° NE
METEOR-M 4.4 12:30:13 10° N 12:35:15 43° WNW 12:40:17 10° SW
STARLINK-40 4.2 12:34:12 26° W 12:35:44 37° NNW 12:39:31 10° NE
Abrixas rocket 3.8 12:34:40 17° NNW 12:36:00 23° NNE 12:38:31 10° ENE
Helios 1A Rocket 2.8 12:32:29 10° NNE 12:36:37 84° WNW 12:40:46 10° SSW
NOSS 3-2 (A) 4.1 12:29:12 11° NW 12:36:38 72° WSW 12:45:07 10° SSE
STARLINK 1020 4.2 12:33:54 10° SSW 12:37:22 49° SE 12:40:52 10° ENE
STARLINK-44 4.2 12:35:48 25° WNW 12:37:25 36° NNW 12:41:09 10° NE
STARLINK-37 4.3 12:37:34 24° WNW 12:39:10 33° NNW 12:42:52 10° NE
STARLINK 1034 4.0 12:36:42 10° SSW 12:40:12 53° SE 12:43:43 10° ENE
STARLINK-36 4.3 12:38:59 23° W 12:40:44 34° NNW 12:44:26 10° NE
STARLINK-68 4.4 12:40:55 22° WNW 12:42:37 31° NNW 12:46:14 10° NNE
Cosmos 1908 3.1 12:39:37 10° SSW 12:43:31 71° W 12:47:26 10° N
STARLINK-63 4.4 12:42:20 21° WNW 12:44:09 31° NNW 12:47:46 10° NNE
NOSS 7 (D) 4.4 12:43:38 21° NW 12:45:35 58° WSW 12:49:08 10° SSE
STARLINK-35 4.4 12:43:44 20° W 12:45:42 31° NNW 12:49:20 10° NNE
STARLINK 1033 3.8 12:42:18 10° SW 12:45:51 61° SE 12:49:24 10° NE
ADEOS Rocket 2.9 12:40:32 10° SSE 12:45:59 76° ENE 12:51:35 10° N
STARLINK-51 4.4 12:45:20 20° W 12:47:22 31° NNW 12:50:59 10° NNE
STARLINK-30 4.5 12:46:55 19° W 12:49:02 30° NNW 12:52:37 10° NNE
CENTAUR R/B 3.4 12:40:49 10° NNW 12:49:03 79° ENE 12:57:51 10° SE
Lacrosse 5 2.4 12:44:35 10° SSW 12:49:35 63° SE 12:54:37 10° NE
SL-16 R/B 2.2 12:44:58 10° SSW 12:50:38 83° WNW 12:56:21 10° NNE
Meteor 2-10 4.4 12:47:28 10° SSW 12:52:46 44° WNW 12:57:56 10° N
Cosmos 1953 Rocket 3.8 12:51:57 10° NNW 12:56:11 46° W 13:00:22 10° SSW
Cosmos 1703 3.4 12:53:35 10° NNW 12:57:28 54° W 13:01:17 10° S
Cosmos 2181 Rocket 4.3 12:54:02 10° SSW 12:59:53 44° WNW 13:05:52 10° N
Genesis I 4.2 12:56:16 10° NNW 12:59:59 45° NE 13:03:39 10° SE
ATLAS 2AS CENTAUR R/B 3.3 12:52:33 10° SW 13:00:13 50° NW 13:07:58 10° NNE
Cosmos 2360 Rocket 3.3 12:55:08 10° S 13:00:34 49° ESE 13:06:01 10° NNE
Cosmos 2056 Rocket 4.2 12:55:57 10° N 13:01:19 60° ENE 13:06:40 10° SSE
ALOS 3.5 12:59:32 10° NNW 13:02:49 19° WNW 13:06:06 10° WSW
CZ-4B R/B 3.5 12:58:39 10° N 13:03:52 43° WNW 13:08:58 10° SW
STARLINK 1044 3.2 13:02:26 10° SW 13:06:02 81° NW 13:09:40 10° NE
CZ-4 R/B 4.1 13:03:47 10° NE 13:07:17 25° E 13:10:45 10° SSE
Okean-O 3.9 13:03:00 10° NNE 13:07:17 47° E 13:11:33 10° S
Cosmos 1953 4.2 13:05:56 10° W 13:07:19 11° WNW 13:08:42 10° NW
Cosmos 1980 Rocket 3.5 13:03:19 10° W 13:07:20 19° NW 13:11:21 10° N
STARLINK 1029 2.8 13:04:23 10° SW 13:07:29 69° NW 13:10:37 10° NE
Okean O Rocket 2.4 13:04:23 10° N 13:08:13 29° WNW 13:12:01 10° SW
SL-8 Rocket 4.3 13:03:23 10° NNW 13:09:13 44° W 13:15:00 10° SSW
Orbus 7S? 4.2 13:07:43 10° NW 13:11:28 87° NE 13:20:16 10° SE
USA 238 DEB 4.5 13:06:24 10° NW 13:12:57 37° WSW 13:19:39 10° S
USA 238 4.5 13:06:30 10° NW 13:13:03 38° WSW 13:19:46 10° S
CZ-2C R/B 4.4 13:10:23 10° SSE 13:14:54 58° ENE 13:19:23 10° N
Meteor 1-11 4.4 13:15:12 10° NNW 13:20:39 54° W 13:26:07 10° S
STARLINK 1028 3.2 13:18:40 10° WSW 13:21:26 39° NW 13:24:13 10° NE
STARLINK 1021 3.2 13:18:53 10° WSW 13:21:40 39° NW 13:24:26 10° NE
STARLINK 1019 3.2 13:19:08 10° WSW 13:21:53 39° NW 13:24:38 10° NE
STARLINK 1012 3.2 13:19:21 10° WSW 13:22:06 39° NW 13:24:53 10° NE
STARLINK 1010 3.2 13:19:34 10° WSW 13:22:19 39° NW 13:25:06 10° NE
STARLINK 1026 3.2 13:19:47 10° WSW 13:22:32 38° NW 13:25:19 10° NE
STARLINK 1013 3.2 13:20:01 10° WSW 13:22:47 38° NW 13:25:33 10° NE
STARLINK 1009 3.2 13:20:15 10° WSW 13:23:00 38° NW 13:25:47 10° NE
STARLINK 1015 3.3 13:20:29 10° WSW 13:23:14 38° NW 13:26:01 10° NE
STARLINK 1016 3.3 13:20:42 10° WSW 13:23:27 38° NW 13:26:13 10° NE
COSMOS 2455 4.1 13:19:22 10° W 13:23:37 20° NW 13:27:54 10° N
STARLINK 1008 3.3 13:20:56 10° WSW 13:23:41 37° NW 13:26:26 10° NE
Cosmos 2058 Rocket 4.0 13:19:55 10° SW 13:23:41 27° WNW 13:27:28 10° NNW
STARLINK 1025 3.3 13:21:23 10° WSW 13:24:07 37° NW 13:26:52 10° NE
STARLINK 1017 3.3 13:21:37 10° WSW 13:24:21 37° NW 13:27:06 10° NE
STARLINK 1023 3.3 13:21:50 10° WSW 13:24:34 37° NW 13:27:20 10° NE
CZ-3 R/B 3.1 13:22:06 10° W 13:32:47 29° SSW 13:37:05 10° SSE
BREEZE M DEB (TANK) 4.0 13:22:52 10° WNW 13:33:54 45° NNE 13:37:23 10° E
